This demonstration page uses our WeatherBlox Daily Observations layout. Learn more.

Left ArrowRight Arrow

19.664709, -155.981431

Hourly Observations for September 29, 2022

Temp ( °F °C ) Dew Point ( °F °C ) Humidity (%) Winds ( mph kmh ) Pressure ( in mb ) Visibility ( mi km ) Precip ( " mm )
12:53 am 00:53 Partly Cloudy 77 25 67 19.4 71 71 NNE 5 7 30.00 1016 10 16 0.00 0.00
1:53 am 01:53 Clear 77 25 67 19.4 71 71 SE 7 11 29.99 1016 10 16 0.00 0.00
2:53 am 02:53 Clear 76 24.4 64 17.8 67 67 E 5 7 29.99 1016 10 16 0.00 0.00
3:53 am 03:53 Clear 74 23.3 64 17.8 71 71 ENE 6 9 29.99 1016 10 16 0.00 0.00
4:53 am 04:53 Clear 74 23.3 64 17.8 71 71 Calm 29.98 1015 10 16 0.00 0.00
5:53 am 05:53 Clear 74 23.3 64 17.8 71 71 ESE 7 11 30.00 1016 10 16 0.00 0.00
6:53 am 06:53 Sunny 76 24.4 65 18.3 69 69 ESE 8 13 30.01 1016 10 16 0.00 0.00
7:53 am 07:53 Sunny 82 27.8 66 18.9 58 58 ESE 7 11 30.02 1017 10 16 0.00 0.00
8:53 am 08:53 Sunny 83 28.3 65 18.3 55 55 S 7 11 30.03 1017 10 16 0.00 0.00
9:53 am 09:53 Sunny 84 28.9 68 20 59 59 SSW 10 17 30.03 1017 10 16 0.00 0.00
10:53 am 10:53 Mostly Sunny 85 29.4 69 20.6 59 59 SSW 10 17 30.03 1017 10 16 0.00 0.00
11:53 am 11:53 Mostly Cloudy 86 30 68 20 55 55 SSW 12 19 30.01 1016 10 16 0.00 0.00
12:53 pm 12:53 Partly Cloudy 86 30 70 21.1 59 59 WSW 12 19 29.99 1016 10 16 0.00 0.00
1:53 pm 13:53 Mostly Cloudy 85 29.4 70 21.1 61 61 SW 10 17 29.98 1015 10 16 0.00 0.00
2:53 pm 14:53 Mostly Cloudy 84 28.9 71 21.7 65 65 WSW 8 13 29.96 1015 10 16 0.00 0.00
3:53 pm 15:53 Mostly Cloudy 84 28.9 70 21.1 63 63 W 7 11 29.96 1015 10 16 0.00 0.00
4:53 pm 16:53 Partly Cloudy 83 28.3 70 21.1 65 65 WSW 7 11 29.96 1015 10 16 0.00 0.00
5:53 pm 17:53 Mostly Cloudy 83 28.3 70 21.1 65 65 W 6 9 29.97 1015 10 16 0.00 0.00
6:53 pm 18:53 Mostly Clear 82 27.8 70 21.1 67 67 WSW 3 6 29.98 1015 10 16 0.00 0.00
7:53 pm 19:53 Clear 81 27.2 69 20.6 67 67 SSE 6 9 30.00 1016 10 16 0.00 0.00
8:53 pm 20:53 Mostly Clear 80 26.7 69 20.6 69 69 SE 6 9 30.01 1016 10 16 0.00 0.00
9:53 pm 21:53 Mostly Cloudy 80 26.7 69 20.6 69 69 SE 6 9 30.03 1017 10 16 0.00 0.00
10:53 pm 22:53 Cloudy 80 26.7 68 20 67 67 SE 10 17 30.03 1017 10 16 0.00 0.00
11:53 pm 23:53 Cloudy 80 26.7 68 20 67 67 SE 10 17 30.02 1017 10 16 0.00 0.00

Powered by AerisWeather